Dewpoint
22 22 22 22 21 21 20 19 19 19 18 17 17 16 16 16 17 17 17 17 15 15 17 16 18 20 19 18 18 17 16 15 9 11 11 12 10 11 11 12 13 12 12
23 23 22 22 22 21 20 20 19 19 18 17 17 16 15 15 16 16 16 16 15 15 16 17 17 17 15 14 13 13 13 15 13 9 10 9 10 10 11 12 12 12 13
26 24 23 22 22 22 20 20 19 19 18 17 17 16 15 15 15 15 15 15 15 14 15 15 15 15 13 11 10 10 10 10 12 10 10 10 11 11 11 13 14 14 14
27 26 24 23 23 22 22 21 19 19 18 17 17 16 15 15 14 14 14 15 14 14 15 14 13 12 11 10 9 9 10 9 10 10 11 11 12 12 14 14 13 13 13
27 26 26 26 24 23 23 23 20 19 19 18 17 16 15 14 14 13 13 14 14 14 14 12 11 10 12 11 9 10 10 10 10 11 11 13 14 14 13 13 13 14 15
27 27 27 27 26 25 24 24 22 20 19 18 17 17 15 14 15 17 13 14 14 12 11 10 10 12 13 14 14 13 12 8 8 11 13 14 14 14 13 13 15 14 13
28 27 27 25 25 26 25 24 22 20 19 18 17 17 16 15 17 19 18 14 13 10 9 8 8 10 12 15 17 16 16 17 15 14 16 16 14 13 14 16 16 17 15
28 27 27 25 23 24 23 23 22 20 19 18 17 16 16 15 17 21 21 14 13 9 8 8 8 10 11 14 16 18 18 17 17 15 14 14 15 15 19 20 18 14 11
28 28 27 25 23 22 22 22 21 20 19 19 18 17 17 16 18 22 21 15 12 9 8 8 8 9 12 12 11 13 13 13 14 16 18 19 19 17 17 14 10 9 6
23 26 26 24 22 20 19 20 20 19 20 19 18 18 18 17 18 23 24 16 14 13 9 10 10 8 12 15 12 11 10 13 16 16 16 16 14 10 10 9 9 8 8
20 19 25 26 23 21 19 18 17 17 17 17 16 17 17 17 17 23 24 16 14 13 13 12 11 12 13 16 16 13 13 15 16 15 11 8 7 5 7 8 8 9 9
15 17 20 21 24 21 19 17 16 17 17 17 16 16 16 16 16 21 26 18 15 13 12 11 11 14 14 17 18 16 16 15 9 6 5 2 3 5 6 7 6 8 9
10 11 13 16 21 21 20 19 17 17 15 13 13 13 13 15 16 20 27 23 16 13 12 12 13 16 16 18 18 18 15 9 6 4 -1 2 4 5 5 6 6 7 7
6 6 7 10 14 21 19 19 18 17 16 16 14 13 12 12 13 15 22 26 20 17 16 16 17 19 18 15 18 16 9 6 3 2 3 4 5 5 5 5 5 5 4
3 3 4 7 10 16 19 18 17 18 18 17 17 17 15 13 14 18 24 24 21 15 17 17 17 16 13 9 7 5 5 5 4 4 4 4 4 4 4 5 4 3 2
-0 -0 1 4 7 11 18 17 19 20 19 22 21 19 18 18 19 21 25 26 20 19 16 15 12 11 10 7 5 4 3 4 3 4 4 3 3 3 3 3 3 2 1
-2 -2 -0 2 5 9 15 15 14 15 20 22 22 23 21 18 20 21 24 26 23 21 13 11 9 8 8 8 6 4 3 4 3 2 2 2 2 2 1 1 1 1 1
-3 -2 -0 2 5 8 11 15 14 14 13 17 21 22 24 22 22 22 24 25 23 19 11 10 9 8 7 6 4 3 3 1 0 -0 -0 -1 -2 -2 -2 -1 -0 0 1
-3 -2 0 2 5 8 10 15 13 13 13 14 18 20 24 23 20 22 24 22 19 10 9 9 8 7 5 4 3 2 -1 -2 -3 -3 -4 -5 -4 -4 -3 -2 -0 0 1
-2 -2 1 2 3 5 8 13 12 11 12 13 15 17 21 21 19 20 22 22 14 9 8 6 5 4 2 1 -1 -2 -4 -5 -6 -6 -6 -6 -5 -4 -3 -1 -0 0 -0
-1 -1 -1 1 4 6 9 11 11 10 11 12 14 17 19 17 16 18 20 14 10 6 6 4 2 1 -1 -3 -5 -6 -7 -6 -7 -8 -8 -7 -6 -5 -3 -1 -0 0 2
1 0 0 1 4 7 10 10 10 10 11 12 14 17 20 18 17 11 10 8 7 5 4 1 -0 -3 -5 -6 -7 -8 -8 -8 -10 -9 -9 -8 -6 -4 -4 -3 -0 2 3
4 5 6 7 7 9 9 9 9 10 11 13 14 15 16 9 8 6 1 1 0 -1 -0 -2 -4 -6 -7 -8 -9 -8 -8 -9 -10 -11 -11 -10 -7 -6 -4 -2 0 2 2
3 4 5 6 7 8 8 8 9 10 10 11 6 4 4 3 0 -1 -1 -2 -2 -4 -5 -6 -7 -8 -11 -13 -14 -14 -14 -13 -14 -14 -14 -10 -6 -5 -4 -1 2 3 2
1 2 2 3 4 4 4 4 5 4 3 2 1 0 -0 -0 -2 -2 -2 -3 -5 -8 -11 -12 -13 -15 -18 -20 -19 -20 -19 -11 -9 -11 -11 -7 -6 -4 -1 1 3 2 0
-1 -0 0 1 1 2 2 1 0 0 -1 -1 -1 -1 -1 -2 -3 -3 -4 -7 -11 -12 -14 -15 -16 -19 -19 -18 -19 -18 -16 -11 -8 -6 -5 -4 0 5 3 2 3 1 -2
Wind_Speed
14 13 16 17 17 18 22 23 24 20 23 25 26 25 27 26 24 24 22 21 24 21 17 19 17 15 14 13 11 10 11 10 11 3 4 4 7 8 12 13 16 17 15
19 17 21 20 18 20 22 22 23 26 24 26 25 26 26 28 26 29 28 25 27 26 23 20 19 14 16 13 13 14 13 12 8 10 3 4 6 7 14 14 12 11 13
23 25 23 22 23 27 27 23 22 24 27 26 27 30 31 30 29 29 28 27 27 24 23 23 21 21 19 17 17 16 12 9 10 7 5 5 8 8 10 11 12 9 9
23 19 25 23 25 26 24 23 24 24 23 26 29 29 29 31 31 31 28 27 26 24 22 22 23 25 22 20 16 15 13 14 9 8 7 9 9 7 9 11 13 11 14
23 27 26 20 19 21 23 24 22 25 27 25 24 26 27 29 29 31 30 29 28 25 22 21 20 19 21 20 18 18 17 14 11 8 6 5 4 6 9 10 15 17 15
25 24 25 24 19 22 22 22 22 24 24 24 27 27 27 27 33 39 33 30 28 28 26 21 18 20 22 23 21 19 19 19 15 10 5 5 4 6 7 12 14 18 13
25 23 25 26 26 22 21 20 23 25 23 26 27 26 28 28 33 37 36 27 29 27 26 24 20 18 19 19 22 20 20 20 15 13 9 6 3 6 9 12 14 16 16
22 21 24 27 26 24 20 18 18 17 23 24 26 27 27 29 34 37 36 25 27 27 27 28 27 25 24 23 23 20 16 13 11 9 6 7 8 9 9 8 12 15 16
24 26 27 26 28 24 19 18 15 15 17 22 21 24 29 25 34 37 36 24 25 26 25 24 24 24 27 28 20 20 15 13 13 13 12 13 9 10 9 11 12 14 16
24 26 25 22 22 24 20 16 14 14 16 15 15 18 21 21 33 39 38 24 24 22 21 22 26 25 31 32 23 23 21 16 13 10 4 3 1 5 9 6 6 12 12
24 27 27 21 21 19 18 13 14 14 10 11 11 11 15 19 25 39 40 22 23 22 22 22 21 27 30 31 24 19 16 14 15 12 9 5 4 4 4 6 6 8 14
25 26 25 27 20 16 15 16 13 15 15 14 14 12 12 14 22 35 40 28 26 26 26 22 21 30 28 28 24 22 20 14 15 10 5 5 3 3 4 7 10 14 17
28 29 27 27 25 18 17 16 14 14 14 16 17 17 15 13 16 29 37 32 26 18 18 22 27 31 28 26 24 22 13 14 11 8 8 4 2 4 8 10 13 17 20
28 29 28 26 25 21 18 17 17 17 19 19 20 20 17 19 19 21 25 28 25 17 20 20 23 24 21 12 14 16 11 12 11 9 5 3 1 5 8 10 14 15 17
28 28 27 25 25 26 21 20 20 21 22 21 20 18 21 22 25 27 28 25 25 25 22 21 21 17 16 12 10 8 7 9 9 7 4 1 3 6 10 11 13 15 15
31 28 24 23 23 23 22 21 24 28 25 30 25 22 20 21 24 32 35 32 35 38 24 24 24 22 21 19 16 14 10 10 8 6 4 2 3 6 11 12 13 14 16
31 31 26 24 23 23 22 20 20 14 29 29 31 27 27 25 30 40 38 35 34 34 24 23 22 21 19 17 17 14 13 10 9 6 4 2 2 7 12 13 14 14 16
29 31 28 25 23 23 23 21 18 17 16 19 28 26 29 26 30 34 40 40 32 29 19 23 21 19 18 18 17 14 13 13 10 7 5 3 5 9 12 14 14 16 18
28 25 24 23 22 23 23 20 18 17 16 16 13 21 24 27 26 31 40 29 29 26 27 21 19 19 18 16 15 13 14 12 10 8 4 5 7 8 13 14 16 18 20
26 28 28 24 24 23 22 20 15 15 15 16 16 17 16 20 22 24 29 24 20 23 20 21 19 17 17 16 16 15 13 11 9 6 6 5 9 11 12 14 16 18 19
23 24 26 23 22 21 21 19 16 15 15 16 15 16 21 24 20 21 24 17 20 19 18 18 19 17 16 16 15 15 13 10 9 7 5 8 11 11 12 13 16 19 19
23 23 22 22 20 19 17 14 13 13 13 13 12 13 27 18 15 14 17 17 16 15 14 17 17 16 15 16 15 13 12 10 9 8 10 9 9 11 12 14 17 18 18
19 18 18 19 18 13 10 9 10 11 11 11 12 16 12 16 16 16 17 17 17 17 14 15 18 15 12 11 11 10 11 11 10 10 9 9 10 12 12 15 17 19 19
15 12 8 4 2 3 4 6 6 8 10 9 13 15 15 15 18 18 18 18 18 16 13 13 13 14 12 11 10 10 11 9 8 11 11 9 11 13 14 15 17 19 19
14 13 12 10 9 9 10 10 11 13 14 14 14 16 15 16 19 19 18 18 17 15 12 10 9 10 10 8 8 10 10 11 13 12 10 10 14 18 18 16 18 17 19
15 15 14 13 13 13 12 13 13 13 13 14 14 14 15 16 17 18 18 17 15 12 10 8 7 6 5 6 8 9 11 13 13 14 12 12 14 15 15 16 18 15 18
Wind_Direction
270 259 246 239 220 208 208 204 200 188 183 186 187 189 187 189 189 187 186 180 188 184 179 183 183 166 168 164 165 174 185 186 213 274 289 332 331 333 322 314 314 311 310
296 265 250 240 228 224 225 216 196 195 187 188 187 190 192 193 189 191 189 187 187 187 182 182 182 169 175 169 176 184 183 186 189 228 278 263 251 280 286 283 274 266 265
322 293 265 243 231 229 226 221 211 203 196 192 189 191 194 194 191 194 191 187 190 190 181 182 180 175 184 185 180 183 183 183 193 193 235 241 257 265 278 268 268 289 292
340 317 274 249 233 234 232 223 214 205 206 201 195 196 197 192 193 192 188 188 188 188 180 181 177 185 186 181 182 184 181 185 185 201 227 242 244 257 270 313 329 333 323
344 342 332 303 268 244 233 224 214 207 204 204 202 199 195 196 194 190 189 187 184 182 181 181 182 179 179 178 180 185 182 186 185 200 231 236 272 331 340 330 327 324 327
342 345 339 333 310 277 250 230 211 210 205 200 203 199 200 202 198 194 187 185 185 182 182 180 176 176 187 184 190 192 185 187 187 185 204 232 306 325 320 325 322 328 342
334 335 341 338 329 305 274 239 219 210 201 205 204 198 201 208 200 198 193 185 183 183 176 176 171 175 175 180 191 192 194 198 188 187 214 225 269 275 304 311 315 313 306
327 326 336 336 326 313 289 254 240 217 207 205 204 202 202 206 199 197 193 187 183 180 178 179 178 175 181 180 185 196 201 200 206 219 204 226 232 262 252 295 326 313 302
325 324 327 331 323 312 291 267 245 229 222 217 209 201 205 205 196 191 190 190 186 180 175 176 177 176 184 185 178 183 189 203 215 220 225 235 253 294 310 325 305 313 309
324 321 308 309 308 301 292 272 245 229 232 221 213 207 211 204 195 193 188 181 182 177 176 178 178 178 184 186 180 178 188 198 195 198 210 254 294 290 296 287 265 279 282
315 313 308 301 302 301 291 268 248 226 212 210 213 209 206 202 200 199 190 187 184 175 177 177 183 186 187 189 185 181 191 179 197 171 181 208 234 234 266 270 261 254 261
303 303 309 309 297 286 267 260 235 220 201 197 192 200 206 205 211 205 198 190 186 181 184 176 173 182 188 190 191 191 196 157 155 159 196 245 249 263 266 273 279 266 259
307 305 305 303 300 268 258 242 232 212 215 199 198 204 193 194 215 214 204 189 197 189 178 170 167 180 183 191 192 195 165 154 153 185 211 219 236 279 292 294 283 276 271
300 299 299 296 294 278 246 237 226 220 212 212 201 205 195 187 193 208 205 187 189 177 167 162 166 174 179 158 176 176 162 163 168 184 188 182 297 291 290 284 284 287 291
293 290 289 288 285 281 250 238 233 233 223 220 211 203 190 196 200 196 190 181 173 160 154 155 165 158 154 154 161 153 155 147 157 169 173 194 309 305 288 281 283 287 289
287 286 284 283 282 280 268 255 243 243 241 237 231 203 209 203 189 199 204 181 175 166 163 172 171 171 173 167 170 163 171 161 155 155 163 200 276 293 283 287 283 280 287
279 283 283 278 274 273 272 247 253 252 243 240 238 224 218 204 197 192 198 194 179 169 168 174 171 168 168 169 169 167 164 158 147 157 175 207 290 284 288 289 287 287 289
277 277 275 275 272 270 267 250 237 239 242 238 232 230 223 211 206 197 192 184 183 176 171 169 171 172 163 167 163 164 157 155 154 164 173 220 271 272 286 282 285 290 292
279 275 274 273 272 273 278 256 225 228 228 231 222 222 214 213 210 200 195 193 183 169 161 167 169 165 165 166 161 157 157 156 157 168 184 237 261 263 273 277 283 287 289
277 273 267 269 268 263 262 247 222 220 224 227 209 213 191 191 198 198 200 192 168 165 167 157 156 154 158 160 157 160 156 160 169 180 213 236 260 255 268 276 286 289 286
280 276 268 264 262 259 259 227 216 213 218 219 217 206 195 188 195 193 192 161 155 151 157 153 148 148 152 155 158 162 166 167 178 194 220 247 254 273 272 273 282 282 281
280 271 264 259 261 257 240 216 210 213 214 212 206 200 196 185 178 138 135 137 134 133 134 137 135 146 157 162 163 165 173 182 195 205 226 245 267 269 273 279 281 279 295
299 290 275 263 249 233 214 202 203 203 203 192 182 185 181 126 125 122 116 111 111 113 114 122 135 142 149 152 162 167 182 203 209 203 227 250 268 273 277 275 280 291 297
318 328 337 4 97 153 172 166 157 155 151 128 95 99 105 112 111 108 106 107 108 107 111 124 133 147 156 165 176 195 211 224 222 224 225 243 271 278 272 271 283 285 295
351 3 19 29 49 64 75 83 80 76 86 94 96 96 97 101 105 106 107 109 112 120 124 128 137 154 162 175 197 215 225 232 233 229 228 237 258 269 267 271 284 286 295
10 16 22 30 40 48 58 65 70 73 81 84 88 93 102 107 106 108 109 114 120 121 127 136 148 146 170 209 226 233 234 235 239 238 237 243 255 263 279 283 287 287 296